User: anonymous   Login
Location: Monroe
(41.9160°N, 83.3980°W)
Time: 05:27:07
(UTC-04:00)
Language:

ISS - Orbit

View from above orbital plane
View from above orbital plane
View from above satellite
View from above satellite

Ground track
Ground track

The orbit data is extracted from the following two-line orbital elements,

1 25544U 98067A   15185.89780788  .00006247  00000-0  96633-4 0  9995
2 25544 051.6454 355.5780 0003178 120.7667 028.2113 15.55507948950794
Epoch (UTC): 04 July 2015 21:32:50
Eccentricity: 0.0003178
inclination: 51.6454°
perigee height: 398 km
apogee height: 403 km
right ascension of ascending node: 355.5780°
argument of perigee: 120.7667°
revolutions per day: 15.55507948
mean anomaly at epoch: 28.2113°
orbit number at epoch: 95079

The dashed part of the orbit path shows where the satellite is in the earth's shadow,  

DLR